Weather Roundup
Issued by NWS Corpus Christi, TX

Home | Current Version | Previous Version | Text Only | Print | Product List | Glossary On
Versions: 1 2 3 4 5 6 7 8 9 10 11 12 13 14 15 16 17 18 19 20 21 22 23 24 25 26 27 28 29 30 31 32 33 34 35 36 37 38 39 40 41 42 43 44 45 46 47 48 49 50
000
ASUS44 KCRP 220310
HRRCRP

SOUTH TEXAS REGIONAL WEATHER ROUNDUP
NATIONAL WEATHER SERVICE CORPUS CHRISTI TX
1000 PM CDT THU SEP 21 2017


TXZ229>244-220400-
...CORPUS CHRISTI AREA OBSERVATIONS...

CITY           SKY/WX    TMP DP  RH WIND       PRES   REMARKS
CORPUS CHRISTI MOCLDY    83  77  82 SE16      29.86F HX  92
NAS CORPUS CHR MOCLDY    84  78  82 SE14G24   29.86F HX  95
ROCKPORT       PTCLDY    83  77  82 SE15G21   29.87R HX  92
KINGSVILLE ARP MOCLDY    81  81 100 E3        29.88S FOG     HX  91
KINGSVILLE NAS MOCLDY    80  80 100 E6        29.87F
ALICE          MOCLDY    80  78  94 SE8       29.88S
$$

...VICTORIA AREA OBSERVATIONS...

CITY           SKY/WX    TMP DP  RH WIND       PRES   REMARKS
PORT LAVACA    NOT AVBL
VICTORIA       MOCLDY    76  74  93 E9        29.92R
BEEVILLE       FAIR      79  79 100 SE5       29.88R
PLEASANTON     PTCLDY    77  74  90 E6        29.88S
SAN ANTONIO    MOCLDY    76  69  79 E5        29.92R
$$

...LAREDO AREA OBSERVATIONS...

CITY           SKY/WX    TMP DP  RH WIND       PRES   REMARKS
LAREDO         CLEAR     83  73  72 E16G24    29.86R
COTULLA        CLEAR     83  73  72 SE13      29.88R
DEL RIO        CLEAR     88  69  53 SE8       29.83R HX  92
MCALLEN        CLOUDY    86  75  69 SE13      29.88R HX  95
HEBBRONVILLE   PTCLDY    79  74  85 SE13      29.91R
$$

...OTHER TEXAS OBSERVATIONS...

CITY           SKY/WX    TMP DP  RH WIND       PRES   REMARKS
BROWNSVILLE    CLEAR     83  78  85 SE15      29.88R HX  93
HOUSTON        CLOUDY    75  72  90 E8        29.95R
COL. STATION   CLEAR     76  72  87 SE6       29.95R
AUSTIN         PTCLDY    75  70  84 S5        29.92R
WACO           CLEAR     80  71  74 S13       29.93R
FORT WORTH     CLEAR     84  69  60 S14       29.90R
WICHITA FALLS  CLEAR     83  67  58 SE16      29.86R
LUBBOCK        PTCLDY    81  57  43 S16       29.90R
EL PASO        PTCLDY    85  46  25 SE3       29.88R
$$

...MARINE OBSERVATIONS...

STATION/POSITION TIME  SKY/WX   TEMP    WIND        PRES    VSBY  WAVE   SWELL
                                AIR SEA DIR/SP/G                  HT/PER HT/PER
                 (UTC)          (F)     (DEG/KT/KT) (MB)    (MI)  (FT/S) (FT/S)
PORT ARANSAS     NOT AVBL
BUOY 90 E PORT A 0150            83 84  100/ 14/ 17 1012.5          3/ 6
BUOY 200 E PT IS 0150            84 85  110/ 14/ 14 1012.9          2/ 5
BUOY 15 E GALVES 0150            82 83  140/ 12/ 14 1013.8          3/ 6   2/ 6
$$




USA.gov is the U.S. government's official web portal to all federal, state and local government web resources and services.